• în Republica Moldova
  • Lista ţărilor
  • Pe 7 zile
  • Temperatura apei
  • Hartă satelitară
  • Meteo pe hartă
  • Widget-uri
  • user-avatar
    Intrare

    Meteo pe oră la Ganja

    Astăzi, 22 August, Marţi

    Timp Temperatura Precipitaţii Vânt Presiune Umiditate
    00:00 +27°C° 0 mm 2 m/s 723 mmHg 49%
    01:00 +26°C° 0 mm 2 m/s 723 mmHg 50%
    02:00 +26°C° 0 mm 1 m/s 723 mmHg 52%
    03:00 +26°C° 0 mm 1 m/s 723 mmHg 51%
    04:00 +26°C° 0 mm 1 m/s 723 mmHg 51%
    05:00 +26°C° 0 mm 1 m/s 723 mmHg 51%
    06:00 +26°C° 0 mm 1 m/s 723 mmHg 52%
    07:00 +27°C° 0 mm 1 m/s 723 mmHg 46%
    08:00 +29°C° 0 mm 1 m/s 723 mmHg 40%
    09:00 +32°C° 0 mm 1 m/s 723 mmHg 34%
    10:00 +34°C° 0 mm 2 m/s 722 mmHg 31%
    11:00 +35°C° 0 mm 2 m/s 722 mmHg 29%
    12:00 +36°C° 0 mm 3 m/s 722 mmHg 27%
    13:00 +37°C° 0 mm 3 m/s 722 mmHg 26%
    14:00 +37°C° 0 mm 3 m/s 721 mmHg 25%
    15:00 +37°C° 0 mm 3 m/s 721 mmHg 24%
    16:00 +37°C° 0 mm 3 m/s 721 mmHg 26%
    17:00 +36°C° 0 mm 3 m/s 721 mmHg 28%
    18:00 +35°C° 0 mm 3 m/s 721 mmHg 29%
    19:00 +34°C° 0 mm 3 m/s 721 mmHg 32%
    20:00 +32°C° 0 mm 4 m/s 722 mmHg 36%
    21:00 +30°C° 0 mm 4 m/s 722 mmHg 39%
    22:00 +29°C° 0 mm 4 m/s 722 mmHg 42%
    23:00 +28°C° 0 mm 3 m/s 722 mmHg 44%

    Mâine, 23 August, Miercuri

    Timp Temperatura Precipitaţii Vânt Presiune Umiditate
    00:00 +27°C° 0 mm 3 m/s 722 mmHg 47%
    01:00 +27°C° 0 mm 3 m/s 722 mmHg 48%
    02:00 +26°C° 0 mm 2 m/s 722 mmHg 49%
    03:00 +26°C° 0 mm 1 m/s 722 mmHg 50%
    04:00 +25°C° 0 mm 1 m/s 723 mmHg 51%
    05:00 +25°C° 0 mm 1 m/s 723 mmHg 51%
    06:00 +25°C° 0 mm 1 m/s 723 mmHg 52%
    07:00 +27°C° 0 mm 1 m/s 723 mmHg 46%
    08:00 +29°C° 0 mm 2 m/s 723 mmHg 40%
    09:00 +31°C° 0 mm 2 m/s 723 mmHg 34%
    10:00 +33°C° 0 mm 3 m/s 723 mmHg 31%
    11:00 +35°C° 0 mm 4 m/s 723 mmHg 27%
    12:00 +36°C° 0 mm 5 m/s 723 mmHg 24%
    13:00 +37°C° 0 mm 5 m/s 723 mmHg 24%
    14:00 +37°C° 0 mm 5 m/s 722 mmHg 23%
    15:00 +39°C° 0 mm 6 m/s 722 mmHg 23%
    16:00 +38°C° 0 mm 6 m/s 722 mmHg 25%
    17:00 +36°C° 0 mm 5 m/s 723 mmHg 28%
    18:00 +35°C° 0 mm 5 m/s 723 mmHg 30%
    19:00 +33°C° 0 mm 5 m/s 723 mmHg 33%
    20:00 +30°C° 0 mm 4 m/s 724 mmHg 36%
    21:00 +28°C° 0 mm 3 m/s 724 mmHg 38%
    22:00 +28°C° 0 mm 2 m/s 724 mmHg 40%
    23:00 +27°C° 0 mm 2 m/s 725 mmHg 42%

    Poimâine, 24 August, Joi

    Timp Temperatura Precipitaţii Vânt Presiune Umiditate
    00:00 +26°C° 0 mm 1 m/s 725 mmHg 44%
    01:00 +26°C° 0 mm 1 m/s 725 mmHg 45%
    02:00 +25°C° 0 mm 1 m/s 725 mmHg 46%
    03:00 +25°C° 0 mm 1 m/s 725 mmHg 47%
    04:00 +25°C° 0 mm 1 m/s 725 mmHg 48%
    05:00 +25°C° 0 mm 2 m/s 725 mmHg 48%
    06:00 +25°C° 0 mm 2 m/s 726 mmHg 48%
    07:00 +27°C° 0 mm 2 m/s 726 mmHg 42%
    08:00 +29°C° 0 mm 2 m/s 726 mmHg 36%
    09:00 +31°C° 0 mm 2 m/s 726 mmHg 30%
    10:00 +33°C° 0 mm 3 m/s 726 mmHg 27%
    11:00 +35°C° 0 mm 4 m/s 726 mmHg 24%
    12:00 +36°C° 0 mm 5 m/s 726 mmHg 20%
    13:00 +37°C° 0 mm 5 m/s 725 mmHg 20%
    14:00 +38°C° 0 mm 6 m/s 725 mmHg 19%
    15:00 +39°C° 0 mm 6 m/s 725 mmHg 18%
    16:00 +38°C° 0 mm 6 m/s 725 mmHg 20%
    17:00 +36°C° 0 mm 5 m/s 725 mmHg 22%
    18:00 +35°C° 0 mm 5 m/s 725 mmHg 25%
    19:00 +33°C° 0 mm 5 m/s 725 mmHg 27%
    20:00 +30°C° 0 mm 5 m/s 726 mmHg 29%
    21:00 +29°C° 0 mm 5 m/s 726 mmHg 31%
    22:00 +28°C° 0 mm 4 m/s 726 mmHg 33%
    23:00 +27°C° 0 mm 3 m/s 727 mmHg 34%

    25 August, Vineri

    Timp Temperatura Precipitaţii Vânt Presiune Umiditate
    00:00 +26°C° 0 mm 3 m/s 727 mmHg 35%
    01:00 +25°C° 0 mm 2 m/s 727 mmHg 36%
    02:00 +25°C° 0 mm 2 m/s 727 mmHg 37%
    03:00 +24°C° 0 mm 1 m/s 727 mmHg 38%
    04:00 +24°C° 0 mm 1 m/s 727 mmHg 38%
    05:00 +24°C° 0 mm 1 m/s 727 mmHg 37%
    06:00 +24°C° 0 mm 1 m/s 727 mmHg 37%
    07:00 +26°C° 0 mm 2 m/s 727 mmHg 33%
    08:00 +28°C° 0 mm 2 m/s 727 mmHg 29%
    09:00 +30°C° 0 mm 2 m/s 727 mmHg 24%
    10:00 +31°C° 0 mm 2 m/s 727 mmHg 22%
    11:00 +34°C° 0 mm 3 m/s 726 mmHg 20%
    12:00 +35°C° 0 mm 3 m/s 726 mmHg 18%
    13:00 +36°C° 0 mm 4 m/s 726 mmHg 17%
    14:00 +36°C° 0 mm 4 m/s 725 mmHg 16%
    15:00 +37°C° 0 mm 5 m/s 725 mmHg 15%
    16:00 +36°C° 0 mm 5 m/s 725 mmHg 17%
    17:00 +35°C° 0 mm 4 m/s 725 mmHg 19%
    18:00 +34°C° 0 mm 4 m/s 725 mmHg 20%
    19:00 +32°C° 0 mm 4 m/s 726 mmHg 23%
    20:00 +30°C° 0 mm 4 m/s 726 mmHg 25%
    21:00 +28°C° 0 mm 4 m/s 727 mmHg 27%
    22:00 +27°C° 0 mm 4 m/s 727 mmHg 30%
    23:00 +26°C° 0 mm 3 m/s 727 mmHg 32%

    26 August, Sâmbătă

    Timp Temperatura Precipitaţii Vânt Presiune Umiditate
    00:00 +25°C° 0 mm 3 m/s 727 mmHg 34%
    01:00 +25°C° 0 mm 2 m/s 727 mmHg 35%
    02:00 +24°C° 0 mm 2 m/s 727 mmHg 35%
    03:00 +24°C° 0 mm 2 m/s 727 mmHg 36%
    04:00 +24°C° 0 mm 1 m/s 727 mmHg 35%
    05:00 +23°C° 0 mm 1 m/s 727 mmHg 35%
    06:00 +23°C° 0 mm 1 m/s 727 mmHg 34%
    07:00 +25°C° 0 mm 2 m/s 727 mmHg 31%
    08:00 +27°C° 0 mm 2 m/s 727 mmHg 27%
    09:00 +29°C° 0 mm 2 m/s 727 mmHg 24%
    10:00 +31°C° 0 mm 3 m/s 726 mmHg 22%
    11:00 +33°C° 0 mm 3 m/s 726 mmHg 20%
    12:00 +34°C° 0 mm 4 m/s 726 mmHg 19%
    13:00 +35°C° 0 mm 4 m/s 725 mmHg 18%
    14:00 +36°C° 0 mm 4 m/s 725 mmHg 18%
    15:00 +36°C° 0 mm 5 m/s 725 mmHg 18%
    16:00 +35°C° 0 mm 4 m/s 725 mmHg 20%
    17:00 +34°C° 0 mm 4 m/s 725 mmHg 22%
    18:00 +33°C° 0 mm 3 m/s 725 mmHg 24%
    19:00 +31°C° 0 mm 3 m/s 725 mmHg 26%
    20:00 +29°C° 0 mm 3 m/s 726 mmHg 28%
    21:00 +27°C° 0 mm 4 m/s 726 mmHg 30%
    22:00 +27°C° 0 mm 3 m/s 726 mmHg 31%
    23:00 +26°C° 0 mm 3 m/s 726 mmHg 33%

    27 August, Duminică

    Timp Temperatura Precipitaţii Vânt Presiune Umiditate
    00:00 +25°C° 0 mm 2 m/s 726 mmHg 34%
    01:00 +24°C° 0 mm 2 m/s 726 mmHg 35%
    02:00 +24°C° 0 mm 2 m/s 726 mmHg 36%
    03:00 +23°C° 0 mm 1 m/s 725 mmHg 37%
    04:00 +23°C° 0 mm 1 m/s 726 mmHg 36%
    05:00 +23°C° 0 mm 2 m/s 726 mmHg 35%
    06:00 +23°C° 0 mm 2 m/s 726 mmHg 34%
    07:00 +25°C° 0 mm 2 m/s 726 mmHg 31%
    08:00 +27°C° 0 mm 2 m/s 726 mmHg 27%
    09:00 +29°C° 0 mm 2 m/s 726 mmHg 24%
    10:00 +30°C° 0 mm 2 m/s 725 mmHg 23%
    11:00 +33°C° 0 mm 3 m/s 725 mmHg 22%
    12:00 +34°C° 0 mm 3 m/s 725 mmHg 20%
    13:00 +35°C° 0 mm 4 m/s 724 mmHg 20%
    14:00 +35°C° 0 mm 4 m/s 724 mmHg 19%
    15:00 +36°C° 0 mm 5 m/s 724 mmHg 19%
    16:00 +35°C° 0 mm 4 m/s 724 mmHg 21%
    17:00 +34°C° 0 mm 4 m/s 724 mmHg 23%
    18:00 +33°C° 0 mm 4 m/s 724 mmHg 26%
    19:00 +30°C° 0 mm 4 m/s 724 mmHg 28%
    20:00 +29°C° 0 mm 4 m/s 724 mmHg 31%
    21:00 +27°C° 0 mm 4 m/s 725 mmHg 33%
    22:00 +26°C° 0 mm 3 m/s 725 mmHg 35%
    23:00 +26°C° 0 mm 3 m/s 725 mmHg 36%
    Arată mai mult